Regional Weather Roundup
Issued by NWS Green Bay, WI

Home | Current Version | Previous Version | Graphics & Text | Print | Product List | Glossary Off
Versions: 1 2 3 4 5 6 7 8 9 10 11 12 13 14 15 16 17 18 19 20 21 22 23 24 25 26 27 28 29 30 31 32 33 34 35 36 37 38 39 40 41 42 43 44 45 46 47 48 49 50

000
ASUS43 KGRB 211210
RWRGRB

NORTH-CENTRAL AND NORTHEAST WISCONSIN REGIONAL WEATHER ROUNDUP
NATIONAL WEATHER SERVICE GREEN BAY WI
700 AM CDT THU AUG 21 2014

WIZ005-009-010>012-018-019-211300-
NORTH CENTRAL WISCONSIN

CITY           SKY/WX    TMP DP  RH WIND       PRES   REMARKS
IRONWOOD       NOT AVBL
MANITOWISH WTR CLOUDY    61  61 100 SE5       29.96S
ARBOR VITAE    CLOUDY    62  59  91 SE5       29.97R FOG
EAGLE RIVER    CLOUDY    61  61 100 SE5       29.96F
LAND O LAKES   CLOUDY    61  61 100 E3        29.97F
RHINELANDER    FOG       60  60 100 SE5       29.98R VSB 1/2
PHILLIPS       CLOUDY    59  59  99 SE3       29.94R
ANTIGO         FOG       61  61 100 E3        29.97S VSB 1/2
TOMAHAWK       CLOUDY    59  58  97 SE3       29.97R FOG
MERRILL        CLOUDY    59  59 100 NE3       29.96R FOG
$$

WIZ013-073-211300-
NORTHEAST WISCONSIN

CITY           SKY/WX    TMP DP  RH WIND       PRES   REMARKS
IRON MOUNTAIN  CLOUDY    60  58  92 CALM      29.96S FOG
MARINETTE      CLOUDY    63  61  94 CALM      29.95S
OCONTO         CLEAR     58  58 100 CALM      29.95R
$$

WIZ017-030-035>037-045-211300-
CENTRAL WISCONSIN

CITY           SKY/WX    TMP DP  RH WIND       PRES   REMARKS
MEDFORD        CLOUDY    62  61  97 SE5       29.94R FOG
WAUSAU         MOCLDY    61  60  97 E7        29.94R FOG
MOSINEE        PTCLDY    61  61 100 E5        29.95S FOG
MARSHFIELD     CLOUDY    65  63  93 SE7       29.93R FOG
WISC RAPIDS    CLOUDY    64  62  93 SE6       29.93F
STEVENS POINT  CLOUDY    61  60  97 SE6       29.95R FOG
WAUPACA        CLOUDY    65  63  94 CALM      29.94S FOG
SHAWANO        CLOUDY    64  62  95 CALM      29.96R FOG
CLINTONVILLE   PTCLDY    59  59 100 CALM      29.95R FOG
$$

WIZ038-039-048-051-211300-
FOX VALLEY

CITY           SKY/WX    TMP DP  RH WIND       PRES   REMARKS
NWS GREEN BAY  MOCLDY    63  62  97 CALM      29.95R FOG
APPLETON       MOCLDY    64  63  94 VRB5      29.96R
OSHKOSH        MOCLDY    65  62  90 SE3       29.94S
FOND DU LAC    PTCLDY    65  61  87 S5        29.95R
$$

WIZ022-050-052-211300-
EAST CENTRAL WISCONSIN

CITY           SKY/WX    TMP DP  RH WIND       PRES   REMARKS
STURGEON BAY   CLOUDY    61  57  88 CALM      29.97R VSB<1/4
MANITOWOC      CLEAR     63  62  97 CALM      29.95R
SHEBOYGAN      PTCLDY    61  60  97 CALM      29.95R FOG
$$

LMZ563-521-522-541>543-211300-
LAKESHORE

STATION/POSITION TIME  TEMP    WIND        PRES    VSBY  WAVE
                       AIR SEA DIR/SP/G                  HT/PER
                 (UTC) (F)     (DEG/KT/KT) (MB)    (MI)  (FT/S)
SHEBOYGAN LKSHOR 1200   66 64  130/  5/  5 1014.4R
KEWAUNEE LKSHORE 1200   61      40/  2/  2 1013.5S
ALGOMA MARINA    1200             CALM       N/A
NORTHPORT PIER   1200   64     170/  2/  3 1014.9R
N MID LAKE BUOY  1200   63 63  140/  4/  4 1014.4R         0
S GREEN BAY BUOY 1200   66     VRB  2      1015.1S
SISTER BAY LKSHO 1100   64     180/  6/  9   N/A
CHAMBERS ISLAND  1200   65      CALM  /  3 1014.9R
MENOMINEE LKSHOR 1200   66     100/  4/  4 1015.0S
$$



USA.gov is the U.S. government's official web portal to all federal, state and local government web resources and services.